Dirección General De Aeronáutica Civil

Dirección Meteorológica de Chile - Servicios Climáticos

Informe General de Control de Calidad de la Estación

Listado de niveles de control de calidad para algunos parámetros
Estación Isla Mocha (380004)
Fecha de Revisión de los datos :

Elementos

Registros Niveles de Control Total
Nivel 0 Nivel 1 Nivel 2 Nivel 3 Errores Porcentaje
01 Temperatura del Aire Seco 11.204 0 . 0 . 0 . 0 . 0 0.00 %
02 Temperatura de Rocío 11.203 0 . 0 . 0 . 0 . 0 0.00 %
03 Humedad Relativa del Aire 11.204 0 . 0 . 0 . 0 . 0 0.00 %
04 Temperatura Máxima PM 1.409 0 . 0 . 18 1.28 % 0 . 18 1.28 %
05 Temperatura Mínima AM 1.402 0 . 0 . 7 0.50 % 0 . 7 0.50 %
06 Viento a 10 m. de Altura 11.204 0 . 0 . 0 . 0 . 0 0.00 %
07 Agua Caida, Acumulada 6 Horas 5.603 0 . 123 2.20 % 0 . 0 . 123 2.20 %
08 Presión Atm. a Nivel de Estación (QFE) 11.200 0 . 2 0.02 % 0 . 0 . 2 0.02 %
09 Presión Atm. a Nivel Medio del Mar (QFF) 11.200 0 . 0 . 0 . 0 . 0 0.00 %
10 Tiempo Pasado Sinóptico 11.201 0 . 0 . 0 . 0 . 0 0.00 %
11 Tiempo Presente Sinóptico 11.202 0 . 3 0.03 % 0 . 0 . 3 0.03 %

Totales

98.032 . 0.0000 % . 0.1306 % . 0.0255 % . 0.0000 % 153 0.1561 %

Detalle de Errores Recientes

Fecha del Dato Descripción Información Error Fecha Ingreso
2024-01-05 12:00:00 Temperatura 12.9 del 05-01-2024 06:00, Menor que la Mínima 13.8 05-01-2024 12:00 12.9 -- 13.8 2024-02-01 11:19:00
Total de Errores Recientes 1

Detalle de Errores Encontrados

Nivel Fecha del Dato Descripción Información Error Fecha Ingreso
1 2020-05-15 15:00:00 ts > 3.0 y ( (ww >= 48 y ww <= 49) o (ww >= 56 y ww <= 57) o (ww >=66 y ww <= 67)) 57 2020-05-15 15:15:00
1 2020-05-15 18:00:00 ts > 3.0 y ( (ww >= 48 y ww <= 49) o (ww >= 56 y ww <= 57) o (ww >=66 y ww <= 67)) 57 2020-05-15 17:58:00
1 2023-05-31 00:00:00 ts > 12.0 y ( (ww >= 68 y ww <= 69) o (ww >= 83 y ww <= 84)) 68 2023-05-30 23:56:00
1 2020-05-05 12:00:00 rrr = 8.8 y WW = 0 w1=0 w2=0 8.8 2020-05-05 12:57:00
1 2020-05-07 06:00:00 rrr = s/p y WW = 21 w1=2 w2=2 0.0 2020-05-07 05:42:00
1 2020-05-09 06:00:00 rrr = s/p y WW = 1 w1=6 w2=2 0.0 2020-05-09 12:32:00
1 2020-05-11 06:00:00 rrr = s/p y WW = 1 w1=8 w2=0 0.0 2020-05-11 05:59:00
1 2020-05-15 18:00:00 rrr = s/p y WW = 57 w1=5 w2=5 0.0 2020-05-15 17:58:00
1 2020-05-16 00:00:00 rrr = s/p y WW = 50 w1=5 w2=5 0.0 2020-05-16 00:15:00
1 2020-05-16 12:00:00 rrr = s/p y WW = 51 w1=5 w2=5 0.0 2020-05-16 12:06:00
1 2020-05-16 18:00:00 rrr = s/p y WW = 50 w1=5 w2=5 0.0 2020-05-16 18:09:00
1 2020-05-18 12:00:00 rrr = s/p y WW = 53 w1=4 w2=4 0.0 2020-05-18 13:19:00
1 2020-05-19 00:00:00 rrr = s/p y WW = 50 w1=5 w2=5 0.0 2020-05-19 02:57:00
1 2020-05-26 12:00:00 rrr = trazas y WW = 1 w1=2 w2=0 0.0 2020-05-26 13:08:00
1 2020-05-29 00:00:00 rrr = s/p y WW = 2 w1=8 w2=2 0.0 2020-05-29 00:44:00
1 2020-06-10 06:00:00 rrr = s/p y WW = 2 w1=8 w2=2 0.0 2020-06-10 06:31:00
1 2020-06-12 18:00:00 rrr = s/p y WW = 25 w1=8 w2=2 0.0 2020-06-12 17:55:00
1 2020-06-16 12:00:00 rrr = 4.8 y WW = 2 w1=0 w2=0 4.8 2020-06-16 13:17:00
1 2020-06-22 06:00:00 rrr = s/p y WW = 52 w1=6 w2=2 0.0 2020-06-22 12:33:00
1 2020-06-22 12:00:00 rrr = s/p y WW = 50 w1=5 w2=5 0.0 2020-06-22 12:42:00
1 2020-06-22 18:00:00 rrr = s/p y WW = 2 w1=5 w2=2 0.0 2020-06-22 18:30:00
1 2020-07-08 06:00:00 rrr = s/p y WW = 2 w1=6 w2=6 0.0 2020-07-08 06:10:00
1 2020-07-13 12:00:00 rrr = 0.4 y WW = 2 w1=0 w2=0 0.4 2020-07-13 13:29:00
1 2020-08-04 00:00:00 rrr = s/p y WW = 1 w1=8 w2=2 0.0 2020-08-03 23:59:00
1 2020-08-04 12:00:00 rrr = 10.4 y WW = 2 w1=1 w2=0 10.4 2020-08-04 12:18:00
1 2020-08-12 12:00:00 rrr = s/p y WW = 25 w1=8 w2=0 0.0 2020-08-12 13:15:00
1 2020-08-14 00:00:00 rrr = s/p y WW = 5 w1=5 w2=2 0.0 2020-08-14 00:38:00
1 2020-08-15 18:00:00 rrr = trazas y WW = 2 w1=0 w2=0 0.0 2020-08-15 21:48:00
1 2020-08-17 00:00:00 rrr = s/p y WW = 20 w1=2 w2=2 0.0 2020-08-17 00:10:00
1 2020-08-17 06:00:00 rrr = s/p y WW = 1 w1=5 w2=2 0.0 2020-08-17 06:05:00
1 2020-08-18 12:00:00 rrr = 0.2 y WW = 2 w1=2 w2=2 0.2 2020-08-18 13:22:00
1 2020-08-29 00:00:00 rrr = s/p y WW = 2 w1=6 w2=1 0.0 2020-08-29 00:05:00
1 2020-08-30 00:00:00 rrr = s/p y WW = 1 w1=6 w2=0 0.0 2020-08-30 15:05:00
1 2020-09-08 12:00:00 rrr = s/p y WW = 61 w1=6 w2=6 0.0 2020-09-08 12:07:00
1 2020-09-09 12:00:00 rrr = 0.4 y WW = 3 w1=0 w2=0 0.4 2020-09-09 11:48:00
1 2020-09-11 06:00:00 rrr = trazas y WW = 2 w1=0 w2=0 0.0 2020-09-11 06:15:00
1 2020-09-11 12:00:00 rrr = 1.1 y WW = 2 w1=0 w2=0 1.1 2020-09-11 12:29:00
1 2020-09-13 18:00:00 rrr = 0.1 y WW = 2 w1=0 w2=0 0.1 2020-09-13 18:16:00
1 2020-09-17 00:00:00 rrr = trazas y WW = 2 w1=2 w2=2 0.0 2020-09-17 01:08:00
1 2020-09-23 00:00:00 rrr = trazas y WW = 2 w1=0 w2=0 0.0 2020-09-23 00:09:00
1 2020-09-27 12:00:00 rrr = 2.8 y WW = 2 w1=2 w2=2 2.8 2020-09-27 12:25:00
1 2020-10-29 18:00:00 rrr = trazas y WW = 2 w1=0 w2=0 0.0 2020-10-29 18:36:00
1 2020-10-30 06:00:00 rrr = trazas y WW = 2 w1=0 w2=0 0.0 2020-10-30 11:51:00
1 2020-11-04 06:00:00 rrr = 0.4 y WW = 2 w1=0 w2=0 0.4 2020-11-04 06:35:00
1 2020-11-21 00:00:00 rrr = trazas y WW = 2 w1=2 w2=1 0.0 2020-11-21 00:41:00
1 2020-12-10 00:00:00 rrr = trazas y WW = 2 w1=0 w2=0 0.0 2020-12-10 00:26:00
1 2020-12-24 00:00:00 rrr = 2.0 y WW = 2 w1=0 w2=0 2.0 2020-12-23 23:57:00
1 2020-12-29 18:00:00 rrr = s/p y WW = 1 w1=5 w2=2 0.0 2020-12-29 18:18:00
1 2021-01-20 00:00:00 rrr = trazas y WW = 2 w1=2 w2=2 0.0 2021-01-20 00:39:00
1 2021-01-31 00:00:00 rrr = 3.0 y WW = 2 w1=0 w2=0 3.0 2021-01-31 00:09:00
1 2021-02-01 12:00:00 rrr = s/p y WW = 10 w1=5 w2=2 0.0 2021-02-01 12:10:00
1 2021-03-09 12:00:00 rrr = trazas y WW = 2 w1=0 w2=0 0.0 2021-03-09 11:53:00
1 2021-04-14 06:00:00 rrr = trazas y WW = 2 w1=0 w2=0 0.0 2021-04-14 09:27:00
1 2021-04-15 12:00:00 rrr = 0.1 y WW = 1 w1=1 w2=0 0.1 2021-04-15 13:13:00
1 2021-04-23 12:00:00 rrr = s/p y WW = 50 w1=6 w2=2 0.0 2021-04-23 12:29:00
1 2021-06-12 06:00:00 rrr = s/p y WW = 2 w1=5 w2=2 0.0 2021-06-12 12:17:00
1 2021-07-06 06:00:00 rrr = s/p y WW = 2 w1=5 w2=2 0.0 2021-07-06 06:04:00
1 2021-07-06 12:00:00 rrr = trazas y WW = 2 w1=2 w2=2 0.0 2021-07-06 12:03:00
1 2021-07-09 00:00:00 rrr = s/p y WW = 2 w1=6 w2=2 0.0 2021-07-09 00:03:00
1 2021-07-25 12:00:00 rrr = s/p y WW = 1 w1=6 w2=2 0.0 2021-07-25 13:12:00
1 2021-08-15 00:00:00 rrr = 6.2 y WW = 2 w1=2 w2=2 6.2 2021-08-16 12:33:00
1 2021-08-22 06:00:00 rrr = s/p y WW = 2 w1=6 w2=1 0.0 2021-08-22 12:22:00
1 2021-09-03 06:00:00 rrr = trazas y WW = 2 w1=2 w2=2 0.0 2021-09-03 13:29:00
1 2021-09-03 12:00:00 rrr = trazas y WW = 2 w1=2 w2=2 0.0 2021-09-03 13:32:00
1 2021-09-04 12:00:00 rrr = s/p y WW = 2 w1=8 w2=2 0.0 2021-09-04 12:11:00
1 2021-09-21 18:00:00 rrr = trazas y WW = 2 w1=0 w2=0 0.0 2021-09-21 17:47:00
1 2021-09-30 12:00:00 rrr = s/p y WW = 2 w1=5 w2=2 0.0 2021-09-30 11:48:00
1 2021-10-02 12:00:00 rrr = s/p y WW = 2 w1=5 w2=2 0.0 2021-10-02 11:54:00
1 2021-11-13 06:00:00 rrr = s/p y WW = 2 w1=5 w2=2 0.0 2021-11-13 11:49:00
1 2021-11-13 12:00:00 rrr = s/p y WW = 1 w1=5 w2=2 0.0 2021-11-13 11:50:00
1 2021-11-15 12:00:00 rrr = s/p y WW = 1 w1=6 w2=2 0.0 2021-11-15 11:55:00
1 2021-12-22 06:00:00 rrr = trazas y WW = 2 w1=0 w2=0 0.0 2021-12-22 11:57:00
1 2021-12-24 06:00:00 rrr = trazas y WW = 2 w1=2 w2=2 0.0 2021-12-24 12:22:00
1 2022-01-03 12:00:00 rrr = s/p y WW = 2 w1=8 w2=2 0.0 2022-01-03 12:08:00
1 2022-01-04 06:00:00 rrr = 3.0 y WW = 2 w1=2 w2=2 3.0 2022-01-04 13:04:00
1 2022-01-22 18:00:00 rrr = s/p y WW = 1 w1=8 w2=0 0.0 2022-01-22 18:10:00
1 2022-02-24 06:00:00 rrr = s/p y WW = 21 w1=2 w2=1 0.0 2022-02-24 13:48:00
1 2022-03-02 18:00:00 rrr = s/p y WW = 1 w1=5 w2=0 0.0 2022-03-02 18:00:00
1 2022-03-17 12:00:00 rrr = s/p y WW = 2 w1=5 w2=0 0.0 2022-03-17 12:57:00
1 2022-03-21 12:00:00 rrr = s/p y WW = 2 w1=6 w2=2 0.0 2022-03-21 12:18:00
1 2022-04-07 06:00:00 rrr = s/p y WW = 50 w1=5 w2=2 0.0 2022-04-07 12:31:00
1 2022-04-07 12:00:00 rrr = s/p y WW = 45 w1=5 w2=4 0.0 2022-04-07 12:13:00
1 2022-04-08 00:00:00 rrr = 0.5 y WW = 2 w1=0 w2=0 0.5 2022-04-08 00:28:00
1 2022-04-20 18:00:00 rrr = 0.9 y WW = 1 w1=0 w2=0 0.9 2022-04-20 17:39:00
1 2022-04-21 00:00:00 rrr = s/p y WW = 2 w1=5 w2=5 0.0 2022-04-28 15:08:00
1 2022-04-21 12:00:00 rrr = s/p y WW = 28 w1=8 w2=5 0.0 2022-04-21 12:42:00
1 2022-04-23 12:00:00 rrr = 9.9 y WW = 0 w1=1 w2=0 9.9 2022-04-23 13:53:00
1 2022-04-24 18:00:00 rrr = s/p y WW = 60 w1=6 w2=2 0.0 2022-04-24 18:17:00
1 2022-05-13 00:00:00 rrr = s/p y WW = 20 w1=2 w2=2 0.0 2022-05-13 00:18:00
1 2022-05-13 06:00:00 rrr = s/p y WW = 2 w1=5 w2=0 0.0 2022-05-13 12:14:00
1 2022-06-19 12:00:00 rrr = s/p y WW = 2 w1=5 w2=2 0.0 2022-06-19 12:48:00
1 2022-06-21 12:00:00 rrr = s/p y WW = 2 w1=6 w2=2 0.0 2022-06-21 14:27:00
1 2022-07-20 00:00:00 rrr = s/p y WW = 20 w1=2 w2=2 0.0 2022-07-19 23:55:00
1 2022-09-22 00:00:00 rrr = s/p y WW = 20 w1=2 w2=2 0.0 2022-09-22 01:18:00
1 2022-10-28 06:00:00 rrr = s/p y WW = 63 w1=6 w2=2 0.0 2022-10-28 12:41:00
1 2022-12-18 06:00:00 rrr = s/p y WW = 1 w1=5 w2=2 0.0 2022-12-18 13:13:00
1 2023-01-10 06:00:00 rrr = s/p y WW = 1 w1=6 w2=2 0.0 2023-01-10 13:16:00
1 2023-02-14 12:00:00 rrr = 0.5 y WW = 2 w1=2 w2=2 0.5 2023-02-14 13:24:00
1 2023-03-08 12:00:00 rrr = s/p y WW = 1 w1=6 w2=2 0.0 2023-03-08 14:31:00
1 2023-03-18 00:00:00 rrr = s/p y WW = 52 w1=6 w2=6 0.0 2023-03-18 00:17:00
1 2023-04-11 12:00:00 rrr = s/p y WW = 2 w1=6 w2=2 0.0 2023-04-11 12:26:00
1 2023-04-19 06:00:00 rrr = s/p y WW = 2 w1=6 w2=2 0.0 2023-04-19 12:28:00
1 2023-04-21 18:00:00 rrr = s/p y WW = 1 w1=5 w2=2 0.0 2023-04-21 18:00:00
1 2023-04-28 00:00:00 rrr = s/p y WW = 2 w1=5 w2=2 0.0 2023-04-28 00:46:00
1 2023-04-29 12:00:00 rrr = 17.8 y WW = 1 w1=2 w2=2 17.8 2023-04-29 15:16:00
1 2023-05-07 06:00:00 rrr = s/p y WW = 2 w1=5 w2=5 0.0 2023-05-07 13:01:00
1 2023-05-21 18:00:00 rrr = s/p y WW = 2 w1=6 w2=2 0.0 2023-05-21 18:21:00
1 2023-05-23 12:00:00 rrr = s/p y WW = 2 w1=8 w2=0 0.0 2023-05-23 14:15:00
1 2023-05-24 06:00:00 rrr = s/p y WW = 91 w1=9 w2=8 0.0 2023-05-24 14:27:00
1 2023-05-26 00:00:00 rrr = s/p y WW = 81 w1=8 w2=0 0.0 2023-05-26 00:11:00
1 2023-05-31 18:00:00 rrr = s/p y WW = 2 w1=6 w2=0 0.0 2023-05-31 21:46:00
1 2023-06-02 06:00:00 rrr = s/p y WW = 2 w1=8 w2=0 0.0 2023-06-02 14:11:00
1 2023-06-10 06:00:00 rrr = s/p y WW = 2 w1=6 w2=2 0.0 2023-06-10 15:03:00
1 2023-06-10 12:00:00 rrr = 9.3 y WW = 1 w1=2 w2=2 9.3 2023-06-10 15:02:00
1 2023-06-20 06:00:00 rrr = s/p y WW = 62 w1=5 w2=2 0.0 2023-06-20 12:32:00
1 2023-06-24 12:00:00 rrr = s/p y WW = 2 w1=5 w2=2 0.0 2023-06-24 13:53:00
1 2023-07-26 00:00:00 rrr = s/p y WW = 1 w1=8 w2=2 0.0 2023-07-26 00:01:00
1 2023-07-28 06:00:00 rrr = s/p y WW = 3 w1=5 w2=2 0.0 2023-07-28 13:29:00
1 2023-08-21 12:00:00 rrr = s/p y WW = 1 w1=6 w2=2 0.0 2023-08-21 13:16:00
1 2023-08-22 00:00:00 rrr = s/p y WW = 2 w1=6 w2=2 0.0 2023-08-22 00:17:00
1 2023-08-26 00:00:00 rrr = trazas y WW = 2 w1=0 w2=0 0.0 2023-08-26 00:25:00
1 2023-09-01 00:00:00 rrr = s/p y WW = 2 w1=6 w2=2 0.0 2023-09-01 00:13:00
1 2023-09-07 12:00:00 rrr = s/p y WW = 2 w1=6 w2=2 0.0 2023-09-07 13:16:00
1 2023-10-05 12:00:00 rrr = trazas y WW = 2 w1=0 w2=0 0.0 2023-10-05 13:49:00
1 2023-10-18 00:00:00 rrr = trazas y WW = 2 w1=0 w2=0 0.0 2023-10-18 02:54:00
1 2023-11-07 12:00:00 rrr = s/p y WW = 2 w1=6 w2=2 0.0 2023-11-07 13:23:00
1 2021-03-25 06:00:00 qfe debe ser menor o igual a qff 1018.0 - 1012.7 2021-03-25 06:04:00
1 2021-05-09 21:00:00 qfe debe ser menor o igual a qff 1024.0 - 1022.7 2021-05-09 20:48:00
Errores del Nivel 128
Nivel Fecha del Dato Descripción Información Error Fecha Ingreso
2 2021-04-23 00:00:00 Temperatura 16.0 del 22-04-2021 15:00, Mayor que la Máxima 15.0 23-04-2021 00:00 16.0 -- 15.0 2021-04-23 00:25:00
2 2021-05-20 00:00:00 Temperatura 14.4 del 19-05-2021 15:00, Mayor que la Máxima 14.0 20-05-2021 00:00 14.4 -- 14.0 2021-05-20 00:32:00
2 2021-08-06 00:00:00 Temperatura 13.4 del 05-08-2021 18:00, Mayor que la Máxima 13.0 06-08-2021 00:00 13.4 -- 13.0 2021-08-06 00:54:00
2 2022-01-02 00:00:00 Temperatura 17.0 del 01-01-2022 15:00, Mayor que la Máxima 16.8 02-01-2022 00:00 17.0 -- 16.8 2022-01-02 01:42:00
2 2022-01-02 00:00:00 Temperatura 17.0 del 01-01-2022 15:00, Mayor que la Máxima 16.8 02-01-2022 00:00 17.0 -- 16.8 2022-01-02 01:42:00
2 2022-01-21 00:00:00 Temperatura 20.0 del 20-01-2022 18:00, Mayor que la Máxima 17.0 21-01-2022 00:00 20.0 -- 17.0 2022-01-21 00:19:00
2 2022-04-02 00:00:00 Temperatura 17.0 del 01-04-2022 18:00, Mayor que la Máxima 16.5 02-04-2022 00:00 17.0 -- 16.5 2022-04-02 00:38:00
2 2022-04-21 00:00:00 Temperatura 15.8 del 20-04-2022 18:00, Mayor que la Máxima 15.3 21-04-2022 00:00 15.8 -- 15.3 2022-04-28 15:08:00
2 2022-05-23 00:00:00 Temperatura 11.9 del 22-05-2022 15:00, Mayor que la Máxima 11.8 23-05-2022 00:00 11.9 -- 11.8 2022-05-22 23:58:00
2 2022-12-15 00:00:00 Temperatura 20.8 del 14-12-2022 18:00, Mayor que la Máxima 19.5 15-12-2022 00:00 20.8 -- 19.5 2022-12-15 00:24:00
2 2023-02-06 00:00:00 Temperatura 18.0 del 05-02-2023 21:00, Mayor que la Máxima 17.1 06-02-2023 00:00 18.0 -- 17.1 2023-02-06 00:41:00
2 2023-04-06 00:00:00 Temperatura 16.4 del 05-04-2023 18:00, Mayor que la Máxima 14.5 06-04-2023 00:00 16.4 -- 14.5 2023-04-13 10:01:00
2 2023-04-18 00:00:00 Temperatura 13.6 del 17-04-2023 18:00, Mayor que la Máxima 13.3 18-04-2023 00:00 13.6 -- 13.3 2023-04-17 23:54:00
2 2023-06-11 00:00:00 Temperatura 11.0 del 10-06-2023 15:00, Mayor que la Máxima 10.6 11-06-2023 00:00 11.0 -- 10.6 2023-06-13 14:20:00
2 2023-10-01 00:00:00 Temperatura 16.6 del 30-09-2023 18:00, Mayor que la Máxima 16.0 01-10-2023 00:00 16.6 -- 16.0 2023-10-01 01:30:00
2 2023-11-12 00:00:00 Temperatura 20.2 del 11-11-2023 21:00, Mayor que la Máxima 13.3 12-11-2023 00:00 20.2 -- 13.3 2023-11-12 00:19:00
2 2023-12-12 00:00:00 Temperatura 17.0 del 11-12-2023 18:00, Mayor que la Máxima 16.4 12-12-2023 00:00 17.0 -- 16.4 2023-12-12 00:25:00
2 2023-12-17 00:00:00 Temperatura 13.0 del 16-12-2023 15:00, Mayor que la Máxima 12.7 17-12-2023 00:00 13.0 -- 12.7 2023-12-16 23:57:00
2 2021-04-20 12:00:00 Temperatura 13.4 del 20-04-2021 03:00, Menor que la Mínima 14.6 20-04-2021 12:00 13.4 -- 14.6 2021-04-20 12:48:00
2 2021-08-27 12:00:00 Temperatura 10.0 del 27-08-2021 03:00, Menor que la Mínima 10.4 27-08-2021 12:00 10.0 -- 10.4 2021-08-27 12:50:00
2 2022-12-01 12:00:00 Temperatura 11.0 del 01-12-2022 06:00, Menor que la Mínima 11.1 01-12-2022 12:00 11.0 -- 11.1 2022-12-01 17:58:00
2 2023-01-24 12:00:00 Temperatura 15.0 del 24-01-2023 09:00, Menor que la Mínima 16.0 24-01-2023 12:00 15.0 -- 16.0 2023-01-25 12:04:00
2 2023-03-04 12:00:00 Temperatura 11.4 del 04-03-2023 09:00, Menor que la Mínima 11.6 04-03-2023 12:00 11.4 -- 11.6 2023-03-04 13:43:00
2 2023-09-14 12:00:00 Temperatura 9.0 del 14-09-2023 03:00, Menor que la Mínima 12.7 14-09-2023 12:00 9.0 -- 12.7 2023-09-14 11:56:00
2 2024-01-05 12:00:00 Temperatura 12.9 del 05-01-2024 06:00, Menor que la Mínima 13.8 05-01-2024 12:00 12.9 -- 13.8 2024-02-01 11:19:00
Errores del Nivel 25
Informe generado el 05-03-2024 10:55
Requerimiento: RE6001